Regional Weather Roundup
Issued by NWS

Home | Current Version | Previous Version | Graphics & Text | Print | Product List | Glossary On
Versions: 1 2 3 4 5 6 7 8 9 10 11 12 13 14 15 16 17 18 19 20 21 22 23 24 25 26 27 28 29 30 31 32 33 34 35 36 37 38 39 40 41 42 43 44 45 46 47 48 49 50
000
ASUS43 KDTX 130210
RWRMI
MICHIGAN HOURLY REGIONAL WEATHER ROUNDUP
NATIONAL WEATHER SERVICE DETROIT/PONTIAC MI
1000 PM EDT SAT JUL 12 2014

NOTE: "FAIR" INDICATES FEW OR NO CLOUDS BELOW 12,000 FEET WITH NO
SIGNIFICANT WEATHER AND/OR OBSTRUCTION TO VISIBILITY.

MIZ047>049-052>055-059>063-066>070-074>076-081>083-130300-
SOUTHEAST LOWER MICHIGAN

CITY           SKY/WX    TMP DP  RH WIND       PRES   REMARKS
ADRIAN         CLOUDY    74  68  81 SW3       29.99F
ALMA           CLOUDY    73  68  83 S12       29.91F
ANN ARBOR      CLOUDY    75  67  76 SW6       29.97F
BAD AXE        HVY RAIN  70  67  92 S9        29.94S
CARO           CLOUDY    72  71  98 CALM      29.92F
DETROIT CITY   CLOUDY    80  67  64 SW6       29.96F
DETROIT        MOCLDY    77  67  71 S8        29.97F
FLINT          CLOUDY    77  67  71 SW8       29.94F
GROSSE ILE     MOCLDY    75  72  88 S7        29.96F
HILLSDALE      CLOUDY    74  71  89 S3        29.99F
HOWELL         CLOUDY    73  67  82 SW7       29.96F

CITY           SKY/WX    TMP DP  RH WIND       PRES   REMARKS
JACKSON        CLOUDY    74  68  81 S7        29.97F
LAMBERTVILLE   MOCLDY    77  66  69 SW5       29.99F
LANSING        CLOUDY    74  67  78 S12       29.94F
LAPEER         FAIR      71  67  88 S5        29.95S
MASON          CLOUDY    73  67  83 S3        29.96S
MONROE         PTCLDY    75  68  78 SW6       29.97S
PONTIAC        CLOUDY    74  69  85 S6        29.96F
PORT HOPE        N/A     69  67  93 CALM      29.92F
PORT HURON     LGT RAIN  73  66  78 S6        29.95F
TRI CITIES     CLOUDY    75  69  81 SW9       29.91F
TROY           CLOUDY    76  69  77 SW5       29.97F
SAGINAW HB     CLOUDY    73  72  94 SW9       29.90F
$$
MIZ043>046-050>051-056>058-064>065-071>073-077>080-130300-
SOUTHWEST LOWER MICHIGAN

CITY           SKY/WX    TMP DP  RH WIND       PRES   REMARKS
BATTLE CREEK   CLOUDY    74  68  81 S10       29.96F
BENTON HARBOR  MOCLDY    74  70  87 SE8       29.90F
BIG RAPIDS     RAIN      71  71 100 SW5       29.88F
COLDWATER      CLOUDY    75  69  79 S5        29.97F
FREMONT        LGT RAIN  70  70 100 SW9       29.88F
HOLLAND        CLOUDY    73  71  93 S5        29.92F
GRAND RAPIDS   LGT RAIN  74  71  91 SW8       29.92F
IONIA          MOCLDY    73  67  82 S9        29.91F
KALAMAZOO      CLOUDY    75  68  78 S8        29.95F
LUDINGTON      CLOUDY    69  68  96 SW8       29.86F FOG
MARSHALL       CLOUDY    73  68  87 S6        29.95F
MOUNT PLEASANT LGT RAIN  72  70  95 S7        29.89F
MUSKEGON       RAIN      72  69  90 S15       29.86F FOG
SOUTH HAVEN    CLOUDY    74  72  93 S3        29.91F
$$
MIZ016>042-130300-
NORTHERN LOWER MICHIGAN

CITY           SKY/WX    TMP DP  RH WIND       PRES   REMARKS
ALPENA         LGT RAIN  69  68  96 S13       29.87F
BEAVER ISLAND  FOG       63  63 100 SW7       29.84F VSB 1/4
BELLAIRE       CLOUDY    69  67  93 CALM      29.83F FOG
CADILLAC       RAIN      69  69 100 SW9       29.87F
CHARLEVOIX     CLOUDY    66  64  96 W3        29.87F FOG
FRANKFORT      FOG       67  65  92 CALM      29.85S VSB 1
GAYLORD        RAIN      69  68  96 S7        29.87F FOG
GRAYLING       LGT RAIN  68  68 100 S3        29.88F
HARBOR SPRINGS LGT RAIN  66  65  99 CALM      29.84F
HOUGHTON LAKE  CLOUDY    70  68  93 SE5       29.88F
MANISTEE       CLOUDY    70  66  88 W3        29.86F
OSCODA         LGT RAIN  70  67  90 S6        29.88F
PELLSTON       CLOUDY    69  65  86 NE5       29.86F
ROGERS CITY    LGT RAIN  70  69  98 S8        29.86F
TRAVERSE CITY  CLOUDY    71  69  93 CALM      29.83F
$$
MIZ007>008-015-130300-
EASTERN UPPER MICHIGAN

CITY           SKY/WX    TMP DP  RH WIND       PRES   REMARKS
KINROSS        CLOUDY    70  64  83 CALM      29.85F
MACKINAC ISLAN CLOUDY    64  60  87 SW3       29.85F
NEWBERRY       CLOUDY    64  61  91 S5        29.82F
S. S. MARIE    CLOUDY    72  63  73 SW3       29.84F
MUNISING         N/A     61  58  90 S6        29.83F
$$
MIZ004>006-011>014-085-130300-
CENTRAL UPPER MICHIGAN

CITY           SKY/WX    TMP DP  RH WIND       PRES   REMARKS
MANISTIQUE     CLOUDY    58  58  99 CALM      29.83F FOG
ESCANABA       CLOUDY    64  59  82 W6        29.85S
MENOMINEE      CLOUDY    64  61  88 CALM      29.85F
SAWYER-GWINN   RAIN      64  61  88 S8        29.85F
$$
MIZ001>003-009>011-084-130300-
WESTERN UPPER MICHIGAN

CITY           SKY/WX    TMP DP  RH WIND       PRES   REMARKS
IRON MOUNTAIN  LGT RAIN  66  61  84 W6        29.84F
HOUGHTON       CLOUDY    63  55  75 CALM      29.83F
COPPER HARBOR    N/A     56  52  86 CALM      29.81F
IRONWOOD       MOCLDY    63  57  82 W3        29.84F
$$

ABBREVIATIONS USED IN REMARKS
   TC - TEMPERATURE IN CELSIUS
  WCI - WIND CHILL INDEX
   HX - HEAT INDEX
  VSB - VISIBILITY




USA.gov is the U.S. government's official web portal to all federal, state and local government web resources and services.